| time (UTC) | temp F | wind direction | speed MPH | gust MPH | rain 1hr in | rain 24hr in | rain mn in | humidity % | barometer mb |
| 20260508051530 | 46 | 338 | 1.0 | 6.0 | 0.00 | 0.00 | 0.00 | 63 | 1024.3 |
| 20260508050530 | 43 | 338 | 1.0 | 4.0 | 0.00 | 0.00 | 0.00 | 68 | 1024.2 |
| 20260508045531 | 41 | 338 | 1.0 | 4.0 | 0.00 | 0.00 | 0.00 | 72 | 1024.1 |
| 20260508044531 | 40 | 338 | 1.0 | 5.0 | 0.00 | 0.00 | 0.00 | 74 | 1024.1 |
| 20260508043532 | 39 | 338 | 2.0 | 4.0 | 0.00 | 0.00 | 0.00 | 76 | 1024.0 |
| 20260508042531 | 38 | 338 | 1.0 | 4.0 | 0.00 | 0.00 | 0.00 | 77 | 1023.9 |
| 20260508041531 | 37 | 338 | 2.0 | 5.0 | 0.00 | 0.00 | 0.00 | 78 | 1023.8 |
| 20260508040532 | 36 | 338 | 1.0 | 5.0 | 0.00 | 0.00 | 0.00 | 78 | 1023.7 |
| 20260508035530 | 35 | 0.0 | 0.0 | 0.00 | 0.00 | 0.00 | 76 | 1023.6 | |
| 20260508034530 | 34 | 0.0 | 0.0 | 0.00 | 0.00 | 0.00 | 73 | 1023.5 | |
| 20260508033550 | 32 | 0.0 | 0.0 | 0.00 | 0.00 | 0.00 | 71 | 1023.4 | |
| 20260508032531 | 31 | 0.0 | 0.0 | 0.00 | 0.00 | 0.00 | 71 | 1023.2 | |
| 20260508031530 | 30 | 0.0 | 0.0 | 0.00 | 0.00 | 0.00 | 72 | 1023.0 | |
| 20260508030530 | 30 | 0.0 | 1.0 | 0.00 | 0.00 | 0.00 | 72 | 1023.1 | |
| 20260508025530 | 30 | 0.0 | 0.0 | 0.00 | 0.00 | 0.00 | 70 | 1023.0 | |
| 20260508024530 | 29 | 0.0 | 0.0 | 0.00 | 0.00 | 0.00 | 69 | 1022.8 | |
| 20260508023530 | 28 | 0.0 | 0.0 | 0.00 | 0.00 | 0.00 | 70 | 1022.7 | |
| 20260508022530 | 28 | 0.0 | 0.0 | 0.00 | 0.00 | 0.00 | 72 | 1022.5 | |
| 20260508021530 | 28 | 0.0 | 0.0 | 0.00 | 0.00 | 0.00 | 74 | 1022.5 | |
| 20260508020531 | 28 | 0.0 | 0.0 | 0.00 | 0.00 | 0.00 | 75 | 1022.4 | |
| 20260508015531 | 28 | 0.0 | 0.0 | 0.00 | 0.00 | 0.00 | 76 | 1022.4 | |
| 20260508014531 | 29 | 0.0 | 0.0 | 0.00 | 0.00 | 0.00 | 76 | 1022.2 | |
| 20260508013533 | 29 | 0.0 | 0.0 | 0.00 | 0.00 | 0.00 | 76 | 1022.1 | |
| 20260508012533 | 29 | 0.0 | 0.0 | 0.00 | 0.00 | 0.00 | 76 | 1022.1 | |
| 20260508011530 | 29 | 0.0 | 0.0 | 0.00 | 0.00 | 0.00 | 77 | 1022.0 | |
| 20260508010532 | 29 | 0.0 | 0.0 | 0.00 | 0.00 | 0.00 | 78 | 1021.9 | |
| 20260508005532 | 29 | 0.0 | 0.0 | 0.00 | 0.00 | 0.00 | 79 | 1021.8 | |
| 20260508004530 | 29 | 0.0 | 0.0 | 0.00 | 0.00 | 0.00 | 79 | 1021.6 | |
| 20260508003531 | 30 | 0.0 | 0.0 | 0.00 | 0.00 | 0.00 | 79 | 1021.6 | |
| 20260508002531 | 30 | 0.0 | 0.0 | 0.00 | 0.00 | 0.00 | 79 | 1021.5 | |
| 20260508001530 | 30 | 0.0 | 1.0 | 0.00 | 0.00 | 0.00 | 79 | 1021.4 | |
| 20260508000531 | 30 | 0.0 | 0.0 | 0.00 | 0.00 | 0.00 | 79 | 1021.3 | |
| 20260507235551 | 31 | 0.0 | 0.0 | 0.00 | 0.00 | 0.00 | 79 | 1021.2 | |
| 20260507234530 | 31 | 0.0 | 1.0 | 0.00 | 0.00 | 0.00 | 78 | 1021.1 | |
| 20260507233531 | 31 | 0.0 | 0.0 | 0.00 | 0.00 | 0.00 | 78 | 1021.0 | |
| 20260507232531 | 31 | 0.0 | 0.0 | 0.00 | 0.00 | 0.00 | 78 | 1021.0 | |
| 20260507231531 | 31 | 0.0 | 0.0 | 0.00 | 0.00 | 0.00 | 77 | 1020.9 | |
| 20260507230611 | 32 | 0.0 | 0.0 | 0.00 | 0.00 | 0.00 | 76 | 1020.8 | |
| 20260507225531 | 32 | 0.0 | 0.0 | 0.00 | 0.00 | 0.00 | 75 | 1020.7 | |
| 20260507224532 | 32 | 0.0 | 2.0 | 0.00 | 0.00 | 0.00 | 74 | 1020.6 | |
| 20260507223531 | 33 | 0.0 | 0.0 | 0.00 | 0.00 | 0.00 | 74 | 1020.4 | |
| 20260507222531 | 33 | 0.0 | 0.0 | 0.00 | 0.00 | 0.00 | 72 | 1020.2 | |
| 20260507221530 | 34 | 0.0 | 3.0 | 0.00 | 0.00 | 0.00 | 71 | 1020.1 | |
| 20260507220550 | 35 | 0.0 | 0.0 | 0.00 | 0.00 | 0.00 | 69 | 1020.1 | |
| 20260507215531 | 35 | 0.0 | 1.0 | 0.00 | 0.00 | 0.00 | 69 | 1020.0 | |
| 20260507214531 | 35 | 338 | 2.0 | 3.0 | 0.00 | 0.00 | 0.00 | 68 | 1019.9 |
| 20260507213551 | 35 | 338 | 2.0 | 4.0 | 0.00 | 0.00 | 0.00 | 67 | 1019.6 |
| 20260507212530 | 36 | 338 | 2.0 | 3.0 | 0.00 | 0.00 | 0.00 | 66 | 1019.5 |
| 20260507211531 | 37 | 338 | 3.0 | 4.0 | 0.00 | 0.00 | 0.00 | 64 | 1019.4 |
| 20260507210531 | 38 | 338 | 3.0 | 5.0 | 0.00 | 0.00 | 0.00 | 62 | 1019.3 |
| 20260507205530 | 39 | 338 | 3.0 | 5.0 | 0.00 | 0.00 | 0.00 | 61 | 1019.2 |
| 20260507204530 | 39 | 338 | 3.0 | 4.0 | 0.00 | 0.00 | 0.00 | 59 | 1019.0 |
| 20260507203531 | 40 | 338 | 3.0 | 5.0 | 0.00 | 0.00 | 0.00 | 58 | 1018.8 |
| 20260507202530 | 41 | 338 | 4.0 | 6.0 | 0.00 | 0.00 | 0.00 | 57 | 1018.6 |
| 20260507201530 | 40 | 338 | 5.0 | 9.0 | 0.00 | 0.00 | 0.00 | 58 | 1018.5 |
| 20260507200531 | 40 | 315 | 4.0 | 8.0 | 0.00 | 0.00 | 0.00 | 58 | 1018.2 |
| 20260507195532 | 41 | 338 | 4.0 | 8.0 | 0.00 | 0.00 | 0.00 | 57 | 1018.1 |
| 20260507194532 | 42 | 338 | 3.0 | 9.0 | 0.00 | 0.00 | 0.00 | 55 | 1017.9 |
| 20260507193532 | 43 | 315 | 3.0 | 5.0 | 0.00 | 0.00 | 0.00 | 53 | 1017.8 |
| 20260507192531 | 44 | 315 | 1.0 | 3.0 | 0.00 | 0.00 | 0.00 | 52 | 1017.7 |
| 20260507191530 | 44 | 315 | 2.0 | 4.0 | 0.00 | 0.00 | 0.00 | 51 | 1017.6 |
| 20260507190531 | 45 | 315 | 3.0 | 7.0 | 0.00 | 0.00 | 0.00 | 51 | 1017.5 |
| 20260507185531 | 45 | 315 | 3.0 | 8.0 | 0.00 | 0.00 | 0.00 | 50 | 1017.3 |
| 20260507184551 | 46 | 315 | 2.0 | 5.0 | 0.00 | 0.00 | 0.00 | 50 | 1017.2 |
| 20260507183531 | 47 | 315 | 2.0 | 5.0 | 0.00 | 0.00 | 0.00 | 48 | 1017.1 |
| 20260507182552 | 47 | 315 | 3.0 | 5.0 | 0.00 | 0.00 | 0.00 | 47 | 1017.0 |
| 20260507181531 | 48 | 293 | 5.0 | 10.0 | 0.00 | 0.00 | 0.00 | 45 | 1016.9 |
| 20260507180531 | 49 | 315 | 5.0 | 11.0 | 0.00 | 0.00 | 0.00 | 43 | 1016.8 |
| 20260507175531 | 49 | 293 | 5.0 | 12.0 | 0.00 | 0.00 | 0.00 | 41 | 1016.7 |
| 20260507174531 | 49 | 293 | 5.0 | 11.0 | 0.00 | 0.00 | 0.00 | 40 | 1016.6 |
| 20260507173531 | 50 | 315 | 6.0 | 15.0 | 0.00 | 0.00 | 0.00 | 40 | 1016.4 |
| 20260507172531 | 50 | 315 | 1.0 | 4.0 | 0.00 | 0.00 | 0.00 | 38 | 1016.3 |
| 20260507171532 | 51 | 293 | 5.0 | 14.0 | 0.00 | 0.00 | 0.00 | 37 | 1016.2 |
| 20260507170531 | 51 | 293 | 4.0 | 10.0 | 0.00 | 0.00 | 0.00 | 37 | 1016.1 |
| 20260507165552 | 52 | 293 | 3.0 | 12.0 | 0.00 | 0.00 | 0.00 | 37 | 1016.2 |
| 20260507164533 | 52 | 293 | 2.0 | 6.0 | 0.00 | 0.00 | 0.00 | 37 | 1016.1 |
| 20260507163531 | 53 | 293 | 3.0 | 10.0 | 0.00 | 0.00 | 0.00 | 35 | 1015.9 |
| 20260507162531 | 53 | 315 | 6.0 | 13.0 | 0.00 | 0.00 | 0.00 | 35 | 1015.9 |
| 20260507161531 | 53 | 270 | 8.0 | 18.0 | 0.00 | 0.00 | 0.00 | 33 | 1015.8 |
| 20260507160530 | 54 | 270 | 6.0 | 15.0 | 0.00 | 0.00 | 0.00 | 34 | 1015.6 |
| 20260507155531 | 54 | 315 | 3.0 | 9.0 | 0.00 | 0.00 | 0.00 | 35 | 1015.6 |
| 20260507154531 | 54 | 315 | 5.0 | 13.0 | 0.00 | 0.00 | 0.00 | 34 | 1015.4 |
| 20260507153532 | 54 | 293 | 2.0 | 7.0 | 0.00 | 0.00 | 0.00 | 35 | 1015.4 |
| 20260507152531 | 54 | 293 | 6.0 | 13.0 | 0.00 | 0.00 | 0.00 | 34 | 1015.4 |
| 20260507151551 | 54 | 315 | 6.0 | 14.0 | 0.00 | 0.00 | 0.00 | 34 | 1015.3 |
| 20260507150530 | 54 | 315 | 6.0 | 14.0 | 0.00 | 0.00 | 0.00 | 33 | 1015.3 |
| 20260507145530 | 54 | 315 | 4.0 | 11.0 | 0.00 | 0.00 | 0.00 | 33 | 1015.3 |
| 20260507144530 | 55 | 315 | 4.0 | 10.0 | 0.00 | 0.00 | 0.00 | 31 | 1015.2 |
| 20260507143531 | 55 | 315 | 5.0 | 12.0 | 0.00 | 0.00 | 0.00 | 32 | 1015.2 |
| 20260507142530 | 54 | 315 | 2.0 | 5.0 | 0.00 | 0.00 | 0.00 | 31 | 1015.1 |
| 20260507141551 | 54 | 293 | 3.0 | 9.0 | 0.00 | 0.00 | 0.00 | 29 | 1015.1 |
| 20260507140530 | 55 | 293 | 4.0 | 11.0 | 0.00 | 0.00 | 0.00 | 29 | 1015.1 |
| 20260507135531 | 55 | 270 | 4.0 | 11.0 | 0.00 | 0.00 | 0.00 | 28 | 1015.1 |
| 20260507134531 | 55 | 293 | 5.0 | 11.0 | 0.00 | 0.00 | 0.00 | 28 | 1015.0 |
| 20260507133551 | 55 | 315 | 1.0 | 9.0 | 0.00 | 0.00 | 0.00 | 29 | 1015.0 |
| 20260507132531 | 55 | 293 | 2.0 | 6.0 | 0.00 | 0.00 | 0.00 | 29 | 1015.1 |
| 20260507131531 | 55 | 293 | 4.0 | 12.0 | 0.00 | 0.00 | 0.00 | 27 | 1015.1 |
| 20260507130530 | 56 | 338 | 7.0 | 11.0 | 0.00 | 0.00 | 0.00 | 27 | 1015.0 |
| 20260507125531 | 55 | 315 | 7.0 | 12.0 | 0.00 | 0.00 | 0.00 | 30 | 1015.1 |
| 20260507124531 | 55 | 338 | 4.0 | 10.0 | 0.00 | 0.00 | 0.00 | 27 | 1015.1 |
| 20260507123530 | 55 | 293 | 3.0 | 13.0 | 0.00 | 0.00 | 0.00 | 27 | 1015.1 |
| 20260507122531 | 54 | 293 | 3.0 | 10.0 | 0.00 | 0.00 | 0.00 | 29 | 1015.1 |
| 20260507121611 | 54 | 293 | 3.0 | 10.0 | 0.00 | 0.00 | 0.00 | 29 | 1015.1 |
| 20260507120531 | 54 | 158 | 3.0 | 8.0 | 0.00 | 0.00 | 0.00 | 31 | 1015.1 |
| 20260507115551 | 54 | 158 | 3.0 | 8.0 | 0.00 | 0.00 | 0.00 | 32 | 1015.1 |
| 20260507114531 | 54 | 158 | 3.0 | 10.0 | 0.00 | 0.00 | 0.00 | 33 | 1015.2 |
| 20260507113531 | 54 | 158 | 8.0 | 12.0 | 0.00 | 0.00 | 0.00 | 32 | 1015.2 |
| 20260507112530 | 53 | 158 | 5.0 | 10.0 | 0.00 | 0.00 | 0.00 | 31 | 1015.1 |
| 20260507111530 | 54 | 158 | 5.0 | 9.0 | 0.00 | 0.00 | 0.00 | 31 | 1015.2 |
| 20260507110530 | 53 | 135 | 6.0 | 12.0 | 0.00 | 0.00 | 0.00 | 30 | 1015.1 |
| 20260507105532 | 53 | 158 | 7.0 | 11.0 | 0.00 | 0.00 | 0.00 | 30 | 1015.1 |
| 20260507104551 | 53 | 158 | 6.0 | 11.0 | 0.00 | 0.00 | 0.00 | 29 | 1015.2 |
| 20260507103531 | 53 | 180 | 4.0 | 8.0 | 0.00 | 0.00 | 0.00 | 30 | 1015.3 |
| 20260507102530 | 53 | 158 | 5.0 | 11.0 | 0.00 | 0.00 | 0.00 | 29 | 1015.3 |
| 20260507101554 | 53 | 158 | 3.0 | 8.0 | 0.00 | 0.00 | 0.00 | 34 | 1015.4 |
| 20260507100532 | 53 | 158 | 6.0 | 10.0 | 0.00 | 0.00 | 0.00 | 32 | 1015.4 |
| 20260507095530 | 53 | 158 | 4.0 | 10.0 | 0.00 | 0.00 | 0.00 | 32 | 1015.4 |
| 20260507094532 | 53 | 180 | 5.0 | 7.0 | 0.00 | 0.00 | 0.00 | 36 | 1015.4 |
| 20260507093531 | 53 | 180 | 3.0 | 7.0 | 0.00 | 0.00 | 0.00 | 35 | 1015.5 |
| 20260507092551 | 52 | 180 | 2.0 | 5.0 | 0.00 | 0.00 | 0.00 | 35 | 1015.5 |
| 20260507091551 | 52 | 203 | 4.0 | 6.0 | 0.00 | 0.00 | 0.00 | 36 | 1015.6 |
| 20260507090531 | 51 | 203 | 1.0 | 5.0 | 0.00 | 0.00 | 0.00 | 33 | 1015.7 |
| 20260507085532 | 51 | 203 | 2.0 | 4.0 | 0.00 | 0.00 | 0.00 | 35 | 1015.8 |
| 20260507084530 | 51 | 203 | 2.0 | 4.0 | 0.00 | 0.00 | 0.00 | 33 | 1015.8 |
| 20260507083551 | 51 | 203 | 3.0 | 5.0 | 0.00 | 0.00 | 0.00 | 37 | 1015.9 |
| 20260507082551 | 51 | 203 | 2.0 | 4.0 | 0.00 | 0.00 | 0.00 | 40 | 1015.9 |
| 20260507081531 | 50 | 203 | 3.0 | 6.0 | 0.00 | 0.00 | 0.00 | 38 | 1015.9 |
| 20260507080531 | 50 | 203 | 3.0 | 8.0 | 0.00 | 0.00 | 0.00 | 38 | 1015.9 |
| 20260507075530 | 49 | 225 | 1.0 | 5.0 | 0.00 | 0.00 | 0.00 | 43 | 1016.0 |
| 20260507074531 | 49 | 225 | 4.0 | 6.0 | 0.00 | 0.00 | 0.00 | 42 | 1016.0 |
| 20260507073533 | 49 | 248 | 2.0 | 5.0 | 0.00 | 0.00 | 0.00 | 45 | 1016.0 |
| 20260507072531 | 48 | 248 | 1.0 | 5.0 | 0.00 | 0.00 | 0.00 | 48 | 1016.0 |
| 20260507071531 | 48 | 248 | 1.0 | 5.0 | 0.00 | 0.00 | 0.00 | 52 | 1016.0 |
| 20260507070531 | 48 | 248 | 2.0 | 4.0 | 0.00 | 0.00 | 0.00 | 55 | 1016.0 |
| 20260507065532 | 48 | 248 | 2.0 | 4.0 | 0.00 | 0.00 | 0.00 | 55 | 1016.0 |
| 20260507064530 | 47 | 248 | 2.0 | 4.0 | 0.00 | 0.00 | 0.00 | 56 | 1016.0 |
| 20260507063550 | 46 | 248 | 1.0 | 4.0 | 0.00 | 0.00 | 0.00 | 58 | 1016.0 |
| 20260507062531 | 46 | 248 | 2.0 | 4.0 | 0.00 | 0.00 | 0.00 | 60 | 1016.0 |
| 20260507061532 | 44 | 270 | 1.0 | 4.0 | 0.00 | 0.00 | 0.00 | 62 | 1016.0 |
| 20260507060531 | 43 | 0.0 | 2.0 | 0.00 | 0.00 | 0.00 | 59 | 1016.0 | |
| 20260507055531 | 43 | 0.0 | 0.0 | 0.00 | 0.00 | 0.00 | 60 | 1015.9 | |
| 20260507054530 | 44 | 0.0 | 0.0 | 0.00 | 0.00 | 0.00 | 57 | 1016.0 | |
| 20260507053551 | 45 | 0.0 | 3.0 | 0.00 | 0.00 | 0.00 | 54 | 1016.0 | |
| 20260507052610 | 44 | 270 | 1.0 | 4.0 | 0.00 | 0.00 | 0.00 | 58 | 1016.0 |